HIMAWARI-8

Last updated on Wed Sep 09 2026 00:02:41 GMT+0000 (Coordinated Universal Time)

1 40267U 14060A 26251.48517016 -.00000296 00000+0 00000+0 0 9994 2 40267 0.0047 87.8808 0001193 114.1119 100.8847 1.00273076 43598
UTC large
Height (km)
Speed (km/s)
/
Latitude / Longitude
Inclination (degrees)
Orbital Period (minutes)
Azimuth
Elevation
Range (km)
Doppler Factor

Next 0 passes for location: London (51.5072 / 0.1276)

No passes found over London.
HIMAWARI-8